Location: Boissi�res
(45.2500°N, 2.3667°E)
Time: 14:21:03
(UTC+00:00)

ASTEX 1 - Pass Details

Date: 03 March 2021
Orbit: 721 x 742 km, 92.7° (Epoch: 22 April)

Event Time Altitude Azimuth Distance (km) Brightness Sun altitude
Rises 19:20:50 0° 10° (N) 3,150 6.7 -18.4°
Reaches altitude 10° 19:23:13 10° 16° (NNE) 2,222 5.8 -18.8°
Maximum altitude 19:27:58 49° 91° (E) 933 3.5 -19.6°
Enters shadow 19:30:11 28° 151° (SSE) 1,323 4.4 -20.0°
